ASTRA 1G
1 25071U 97076A   03023.00000000  .00000124  00000-0  10000-3 0  3885
2 25071   0.0122 319.8851 0002995  65.1991 116.0322  1.00273184 18878
INMARSAT 3-F5
1 25153U 98006B   03022.21636575  .00000145  00000-0  10000-3 0  8354
2 25153   0.4555 355.6404 0005465 316.5639 271.8209  1.00271118 18220
HOT BIRD 4
1 25237U 98013A   03013.80550721  .00000107  00000-0  10000-3 0  3250
2 25237   0.0242 116.4838 0007929 193.6371 105.7449  1.00276095 18185
NOAA 15
1 25338U 98030A   03024.16674720  .00000254  00000-0  12860-3 0  9804
2 25338  98.5503  47.0046 0011155  34.6099 325.5804 14.24233492244188
RESURS O1-N4
1 25394U 98043A   03024.54923878  .00000208  00000-0  10979-3 0  4312
2 25394  98.6364 102.9361 0001554 150.1500 209.9768 14.23868927235977
TMSAT
1 25396U 98043C   03024.23186807 -.00000043  00000-0  00000+0 0  8179
2 25396  98.6308 101.8278 0002484 185.6445 174.4706 14.23503229235920
TECHSAT 1B
1 25397U 98043D   03022.97816413 +.00000073 +00000-0 +51598-4 0 01002
2 25397 098.6273 099.5151 0000633 186.8121 173.3049 14.22953332235711
ASTRA 2A
1 25462U 98050A   03023.69277567  .00000000  00000-0  10000-3 0  5291
2 25462   0.0332  23.2945 0014243 166.1651 210.9165  1.00270553 16187
EUTELSAT W2
1 25491U 98056A   03023.78848381  .00000107  00000-0  00000+0 0  5683
2 25491   0.0296 110.9551 0004334 197.5648 113.9961  1.00272682 15796
HOT BIRD 5
1 25495U 98057A   03024.00223959  .00000159  00000-0  00000+0 0  4947
2 25495   0.0202 256.5555 0004157  52.8082 207.4319  1.00269503 15767
SEDSAT 1
1 25509U 98061B   03024.05522588  .00001219  00000-0  23532-3 0  7639
2 25509  31.4307 297.2419 0357775  80.0387 284.0406 14.27393783221663
PAN SAT
1 25520U 98064B   03024.11150136  .00003061  00000-0  15509-3 0  6325
2 25520  28.4572  33.3810 0006095  77.4207 282.7084 15.13752036233720
ISS (ZARYA)
1 25544U 98067A   03024.47622044  .00069361  00000-0  85101-3 0  6178
2 25544  51.6364  22.1300 0005610  70.2827  67.5166 15.59657793238587
ORSTED
1 25635U 99008B   03024.52743192  .00000864  00000-0  22551-3 0  8141
2 25635  96.4477  16.7583 0146701  48.8546 312.5199 14.44789148206327
SUNSAT
1 25636U 99008C   03022.95040014 +.00000448 +00000-0 +12448-3 0 07130
2 25636 096.4512 014.2714 0150611 059.9570 301.6467 14.42927094205971
UOSAT 12
1 25693U 99021A   03024.48740410  .00000435  00000-0  82205-4 0  6409
2 25693  64.5586  87.5536 0018103 317.3326  42.6370 14.76359201202557
FENGYUN 1C
1 25730U 99025A   03024.56350509 -.00000027  00000-0  81226-5 0  7503
2 25730  98.6351  49.9013 0015335  75.1218 285.1648 14.11730815191105
ASTRA 1H
1 25785U 99033A   03023.00000000  .00000123  00000-0  10000-3 0  3690
2 25785   0.0122 319.8851 0002995  65.1991 116.0174  1.00273184 13230
TERRA
1 25994U 99068A   03024.24845657  .00000583  00000-0  13949-3 0  6320
2 25994  98.2030 100.8573 0001096  75.1755 284.9552 14.57102558164984
JAWSAT
1 26061U 00004A   03024.52739730  .00000701  00000-0  25063-3 0  7483
2 26061 100.2111  76.9442 0035013 351.1823   8.8740 14.37796670156931
OPAL
1 26063U 00004C   03024.18407022  .00000210  00000-0  92841-4 0  7050
2 26063 100.2162  74.1539 0037337 358.6996   1.4076 14.35470991156743
ASUSAT
1 26065U 00004E   03024.55962358  .00000248  00000-0  10580-3 0  7163
2 26065 100.2156  74.7409 0037343 359.1174   0.9934 14.35497929156793
GOES 11
1 26352U 00022A   03023.54107605 -.00000035  00000-0  10000-3 0  9890
2 26352   0.0799 109.1583 0004533 168.8003 286.6241  1.00262743  9972
EUTELSAT W4
1 26369U 00028A   03023.88152922  .00000158  00000-0  00000+0 0  3459
2 26369   0.0471  34.6214 0006483 267.5225 174.0674  1.00274525  9790
FENGYUN 2B
1 26382U 00032A   03023.92863609 -.00000323  00000-0  00000+0 0  7746
2 26382   0.6313 287.0785 0000394 147.0034 127.2337  1.00261395  9458
EUTELSAT W1
1 26487U 00052A   03023.34201314  .00000000  00000-0  10000-3 0  3460
2 26487   0.0021 194.6739 0004633 113.2179 307.4261  1.00269860  8756
ASTRA 2B
1 26494U 00054A   03023.00000000  .00000154  00000-0  00000+0 0  2523
2 26494   0.0178 354.5658 0005000 302.8402 212.7100  1.00276704  8652
NOAA 16
1 26536U 00055A   03024.07011636  .00000119  00000-0  89158-4 0  1791
2 26536  98.9001 332.5467 0011054  21.9216 338.2462 14.11888047120556
SAUDISAT 1A
1 26545U 00057A   03024.39140929  .00001459  00000-0  21205-3 0  4021
2 26545  64.5592 109.3027 0053690 242.8317 116.7273 14.78913089125495
UNISAT
1 26547U 00057C   03023.98494142  .00002746  00000-0  37297-3 0  4215
2 26547  64.5571 112.8828 0060869 245.3243 114.1522 14.79633895125409
TIUNGSAT 1
1 26548U 00057D   03023.23736702  .00002037  00000-0  27486-3 0  4059
2 26548  64.5583 106.0306 0046953 242.2571 117.3762 14.81179242125468
SAUDISAT 1B
1 26549U 00057E   03023.39437455  .00001642  00000-0  24124-3 0  6734
2 26549  64.5507 116.3436 0058195 243.1378 116.3759 14.77851213125273
AMSAT OSCAR 40
1 26609U 00072B   03018.40123252 -.00000010  00000-0  10000-3 0  3050
2 26609   7.9708  69.8773 7935358 134.4243 325.7472  1.25596623 10197
GOES 12
1 26871U 01031A   03023.50571230 -.00000112  00000-0  10000-3 0  7863
2 26871   0.3918 277.1770 0004237 349.9999 294.2422  1.00365246  5575
PCSAT
1 26931U 01043C   03023.91086242  .00000258  00000-0  13433-3 0  3849
2 26931  67.0481 321.6671 0005244 260.4971  99.5531 14.29101522 68686
SAPPHIRE
1 26932U 01043D   03024.52193068  .00000195  00000-0  10892-3 0  3793
2 26932  67.0579 319.8041 0005817 241.4676 118.5841 14.29285121 68798
ENVISAT
1 27386U 02009A   03024.46524707  .00000285  00000-0  12171-3 0  8754
2 27386  98.5459  93.3778 0001000  97.6067 262.5231 14.32248133 47150
IDEFIX/ARIANE 42P
1 27422U 02021B   03024.51746445  .00000307  00000-0  14163-3 0  2167
2 27422  98.6991 103.8308 0012010 220.1794 139.8500 14.27956534 37881
NOAA 17
1 27453U 02032A   03024.11717562  .00000325  00000-0  16302-3 0  2793
2 27453  98.7612  95.4567 0012659  71.9492 288.3064 14.23278057 30347
HOT BIRD 6
1 27499U 02038A   03013.80550721  .00000106  00000-0  10000-3 0   665
2 27499   0.0928  32.8693 0008090 290.3889  92.5421  1.00271722  1476
RUBIN 2
1 27605U 02058A   03024.16024290  .00000821  00000-0  15280-3 0   371
2 27605  64.5535 274.3943 0030065 120.8507 239.5553 14.71392659  5070
STS-107     
1 27647U 03003A   03024.54370370  .00025607  27342-8  47709-4 0   257
2 27647  39.0166 176.5242 0010144  61.3683  91.3898 15.99850326  1273
